Temp
-11 -11 -11 -11 -11 -11 -10 -10 -9 -9 -8 -11 -11 -12 -13 -15 -16 -14 -12 -10 -10 -11 -11 -10 -10 -10 -10 -10 -10 -9 -9 -9 -9 -9 -9 -10 -10 -10 -10 -9 -10 -9 -9
-12 -12 -12 -12 -11 -11 -11 -10 -10 -9 -10 -11 -12 -14 -15 -16 -17 -15 -12 -11 -12 -11 -12 -11 -10 -10 -10 -10 -10 -10 -9 -10 -9 -10 -9 -10 -10 -10 -10 -9 -10 -10 -9
-12 -12 -12 -12 -12 -11 -11 -10 -10 -9 -10 -12 -14 -14 -16 -16 -16 -15 -13 -12 -12 -12 -12 -11 -10 -10 -11 -10 -11 -10 -10 -10 -10 -10 -10 -10 -10 -10 -10 -10 -10 -10 -10
-13 -13 -12 -12 -12 -12 -11 -10 -10 -11 -11 -13 -13 -13 -15 -16 -16 -15 -16 -13 -12 -12 -14 -12 -11 -11 -11 -11 -11 -11 -10 -10 -10 -10 -10 -10 -10 -10 -10 -10 -10 -10 -10
-13 -13 -13 -12 -12 -12 -12 -11 -11 -12 -13 -13 -13 -14 -15 -16 -16 -16 -14 -11 -12 -13 -14 -12 -11 -11 -11 -11 -11 -11 -11 -10 -10 -10 -10 -10 -10 -10 -10 -10 -10 -10 -10
-14 -14 -13 -13 -13 -12 -12 -11 -11 -13 -13 -12 -12 -12 -12 -13 -13 -13 -13 -12 -13 -13 -13 -12 -11 -11 -11 -11 -11 -11 -11 -11 -11 -11 -11 -10 -10 -10 -10 -10 -10 -10 -10
-15 -14 -14 -13 -13 -12 -13 -12 -12 -13 -13 -12 -12 -11 -10 -11 -12 -13 -13 -13 -13 -13 -13 -12 -11 -11 -11 -11 -11 -12 -11 -11 -11 -11 -11 -10 -10 -10 -10 -10 -10 -10 -10
-14 -14 -14 -13 -13 -13 -13 -13 -12 -13 -14 -12 -12 -12 -11 -10 -11 -12 -12 -13 -13 -13 -13 -12 -12 -12 -12 -12 -12 -12 -12 -12 -11 -11 -11 -11 -10 -11 -11 -11 -11 -10 -11
-14 -14 -14 -13 -13 -13 -13 -13 -13 -13 -14 -13 -13 -12 -12 -11 -11 -12 -12 -13 -14 -14 -13 -12 -12 -12 -12 -12 -12 -12 -12 -12 -12 -11 -11 -11 -11 -11 -11 -11 -11 -11 -11
-15 -15 -14 -14 -13 -13 -13 -13 -13 -13 -14 -14 -13 -13 -12 -12 -12 -12 -12 -13 -13 -14 -13 -12 -12 -12 -12 -12 -12 -12 -12 -12 -12 -12 -11 -11 -11 -11 -11 -11 -11 -11 -11
-16 -15 -15 -15 -14 -13 -13 -14 -14 -14 -14 -14 -14 -14 -13 -12 -12 -12 -12 -13 -13 -13 -13 -12 -13 -13 -13 -13 -12 -13 -12 -12 -12 -12 -12 -12 -12 -12 -11 -11 -11 -11 -11
-17 -17 -16 -16 -15 -14 -13 -13 -14 -14 -14 -14 -15 -14 -13 -13 -13 -13 -13 -12 -13 -12 -14 -13 -12 -13 -13 -13 -14 -14 -14 -13 -12 -13 -13 -12 -12 -12 -11 -12 -12 -12 -11
-17 -17 -18 -17 -16 -15 -14 -13 -14 -14 -14 -14 -14 -15 -14 -13 -13 -14 -13 -14 -14 -14 -13 -14 -14 -13 -13 -13 -14 -14 -14 -14 -14 -14 -13 -13 -13 -12 -13 -12 -12 -12 -12
-18 -18 -18 -18 -17 -16 -15 -14 -14 -14 -15 -14 -14 -14 -14 -14 -13 -13 -13 -14 -14 -14 -13 -13 -13 -13 -13 -13 -13 -13 -13 -13 -14 -13 -13 -13 -13 -13 -13 -13 -13 -13 -13
-20 -19 -18 -19 -18 -18 -16 -15 -14 -14 -14 -14 -15 -14 -14 -13 -13 -14 -14 -13 -14 -13 -13 -13 -13 -14 -13 -13 -14 -14 -13 -13 -13 -13 -13 -13 -14 -14 -13 -13 -13 -13 -13
-22 -21 -20 -19 -19 -19 -18 -16 -15 -15 -14 -15 -15 -15 -15 -14 -14 -14 -14 -14 -14 -14 -14 -13 -13 -13 -14 -13 -13 -13 -13 -14 -14 -14 -14 -14 -14 -14 -14 -14 -13 -13 -13
-23 -23 -22 -21 -21 -20 -19 -18 -16 -16 -15 -15 -15 -15 -15 -15 -15 -14 -15 -15 -14 -14 -14 -14 -14 -14 -14 -14 -14 -14 -14 -13 -14 -14 -14 -13 -14 -14 -14 -14 -14 -14 -14
-24 -23 -23 -23 -21 -21 -21 -20 -18 -17 -16 -15 -16 -16 -15 -16 -16 -16 -15 -15 -15 -15 -15 -15 -14 -14 -14 -14 -15 -14 -14 -14 -14 -14 -14 -14 -14 -14 -14 -14 -14 -14 -14
-24 -24 -23 -22 -22 -22 -22 -21 -20 -19 -18 -17 -16 -17 -17 -16 -16 -16 -16 -16 -16 -16 -15 -15 -15 -15 -15 -15 -15 -15 -15 -14 -14 -14 -14 -14 -14 -14 -14 -14 -14 -14 -14
-24 -24 -24 -24 -23 -22 -22 -22 -21 -21 -20 -20 -18 -17 -18 -18 -18 -17 -17 -17 -17 -16 -16 -16 -16 -16 -16 -16 -16 -16 -15 -15 -15 -14 -14 -14 -14 -14 -14 -15 -14 -14 -14
-24 -24 -24 -23 -22 -23 -23 -22 -22 -22 -22 -21 -20 -19 -18 -18 -19 -19 -19 -18 -18 -17 -17 -16 -16 -16 -15 -15 -16 -16 -17 -17 -17 -18 -17 -16 -15 -15 -15 -15 -15 -15 -15
-24 -24 -24 -23 -23 -23 -23 -23 -23 -23 -23 -22 -21 -20 -19 -19 -19 -19 -20 -19 -19 -18 -17 -17 -17 -17 -17 -17 -17 -17 -17 -17 -17 -18 -18 -17 -17 -17 -17 -17 -17 -17 -16
-25 -24 -23 -23 -23 -23 -23 -23 -24 -23 -23 -23 -23 -22 -21 -20 -19 -19 -20 -20 -19 -19 -18 -18 -18 -18 -18 -18 -17 -18 -18 -17 -17 -17 -18 -18 -18 -18 -18 -18 -18 -18 -17
-25 -25 -23 -23 -24 -24 -24 -23 -23 -24 -23 -23 -23 -22 -22 -22 -21 -20 -20 -20 -20 -19 -19 -19 -19 -19 -19 -19 -18 -18 -18 -18 -18 -18 -18 -18 -19 -19 -19 -18 -18 -18 -19
-26 -25 -24 -22 -23 -24 -24 -23 -23 -23 -24 -23 -23 -23 -23 -22 -22 -21 -21 -20 -20 -20 -20 -20 -20 -19 -19 -19 -19 -19 -18 -18 -18 -18 -18 -19 -19 -19 -19 -19 -19 -19 -19
-29 -27 -25 -23 -24 -24 -23 -24 -25 -24 -24 -24 -23 -23 -23 -23 -22 -22 -21 -21 -21 -20 -20 -20 -20 -19 -20 -19 -19 -19 -18 -18 -19 -19 -19 -19 -19 -19 -19 -20 -20 -20 -20
Height
5698 5700 5702 5703 5704 5705 5706 5705 5704 5701 5698 5692 5687 5686 5686 5686 5697 5713 5729 5738 5748 5757 5769 5780 5789 5793 5803 5808 5816 5822 5827 5833 5839 5844 5848 5852 5854 5856 5858 5861 5863 5863 5864
5688 5690 5694 5695 5695 5696 5695 5694 5692 5689 5683 5681 5678 5672 5671 5670 5676 5690 5701 5726 5734 5744 5758 5771 5778 5785 5796 5801 5809 5816 5822 5827 5832 5837 5841 5846 5850 5851 5853 5856 5858 5859 5860
5678 5682 5684 5686 5686 5686 5685 5683 5681 5679 5676 5671 5667 5659 5653 5647 5653 5668 5681 5702 5720 5732 5746 5761 5766 5778 5788 5795 5801 5808 5815 5820 5825 5830 5835 5839 5843 5845 5848 5851 5853 5855 5856
5670 5673 5675 5677 5677 5677 5676 5674 5671 5670 5668 5663 5657 5646 5638 5634 5644 5662 5678 5698 5708 5722 5739 5752 5759 5770 5780 5789 5795 5801 5807 5812 5818 5824 5828 5833 5836 5840 5843 5844 5847 5850 5851
5662 5665 5667 5669 5669 5669 5668 5667 5664 5663 5661 5659 5651 5642 5635 5632 5638 5655 5676 5690 5701 5716 5732 5744 5755 5764 5774 5783 5788 5794 5801 5806 5811 5816 5821 5825 5830 5833 5836 5839 5842 5843 5845
5652 5656 5658 5661 5662 5662 5661 5659 5658 5658 5656 5655 5649 5643 5638 5639 5649 5662 5673 5685 5698 5713 5728 5740 5749 5758 5767 5775 5782 5787 5793 5798 5804 5810 5814 5819 5823 5825 5830 5834 5836 5837 5839
5641 5647 5650 5654 5656 5656 5655 5654 5653 5653 5652 5652 5648 5644 5646 5651 5660 5667 5676 5688 5699 5712 5726 5737 5745 5753 5761 5767 5774 5781 5786 5792 5797 5802 5807 5810 5816 5819 5822 5826 5829 5830 5832
5633 5636 5640 5645 5649 5650 5650 5650 5649 5648 5648 5650 5648 5646 5644 5654 5661 5669 5679 5687 5699 5712 5722 5731 5738 5745 5751 5759 5767 5773 5779 5784 5789 5795 5800 5803 5808 5811 5814 5818 5821 5823 5825
5626 5629 5632 5634 5638 5641 5643 5645 5645 5645 5646 5647 5647 5648 5648 5652 5662 5666 5674 5682 5693 5705 5715 5723 5730 5737 5744 5750 5757 5764 5770 5775 5780 5786 5790 5794 5799 5802 5805 5809 5812 5814 5816
5617 5621 5624 5626 5629 5635 5638 5639 5639 5641 5643 5646 5646 5649 5652 5656 5663 5667 5672 5676 5688 5699 5708 5716 5721 5728 5735 5742 5748 5755 5761 5767 5771 5776 5781 5785 5789 5792 5796 5799 5802 5804 5807
5606 5611 5615 5618 5622 5625 5630 5634 5636 5636 5638 5642 5647 5649 5652 5656 5660 5666 5670 5677 5685 5693 5701 5707 5715 5721 5727 5735 5741 5747 5753 5758 5763 5767 5772 5776 5780 5782 5786 5789 5792 5794 5796
5595 5600 5605 5610 5614 5617 5620 5626 5631 5633 5634 5638 5643 5647 5651 5654 5658 5663 5667 5672 5677 5683 5691 5701 5707 5712 5719 5725 5732 5737 5743 5749 5753 5757 5762 5766 5769 5773 5776 5778 5782 5783 5785
5585 5589 5594 5600 5606 5611 5613 5616 5621 5627 5630 5633 5636 5641 5645 5649 5653 5657 5663 5668 5673 5676 5682 5690 5697 5703 5709 5715 5721 5726 5732 5736 5741 5745 5750 5753 5757 5760 5764 5767 5770 5773 5774
5574 5580 5585 5590 5597 5604 5609 5610 5612 5616 5622 5627 5631 5635 5639 5642 5647 5651 5657 5663 5668 5673 5679 5685 5690 5695 5700 5706 5711 5716 5720 5724 5729 5733 5737 5740 5744 5748 5750 5753 5757 5760 5763
5562 5569 5575 5581 5587 5593 5601 5605 5608 5610 5613 5618 5623 5627 5631 5635 5638 5645 5650 5655 5660 5666 5671 5675 5681 5687 5691 5696 5700 5704 5708 5712 5716 5720 5725 5729 5733 5735 5737 5740 5744 5746 5748
5550 5557 5563 5570 5578 5584 5591 5598 5601 5604 5606 5610 5615 5619 5623 5627 5631 5636 5639 5644 5651 5655 5660 5665 5672 5675 5679 5684 5689 5693 5697 5702 5706 5710 5713 5718 5720 5722 5724 5728 5731 5734 5735
5542 5546 5551 5559 5567 5577 5582 5589 5595 5598 5600 5603 5607 5612 5616 5620 5624 5629 5631 5636 5641 5646 5648 5654 5657 5661 5667 5672 5676 5680 5686 5690 5694 5697 5700 5704 5707 5709 5712 5715 5716 5717 5720
5531 5538 5544 5547 5555 5565 5574 5579 5587 5593 5596 5598 5600 5603 5608 5613 5617 5621 5625 5628 5634 5636 5638 5642 5646 5649 5654 5658 5663 5668 5673 5676 5680 5682 5687 5690 5693 5696 5698 5699 5700 5702 5705
5515 5526 5534 5540 5544 5554 5564 5571 5577 5584 5590 5593 5595 5597 5600 5604 5609 5613 5616 5619 5621 5626 5630 5634 5637 5640 5643 5644 5646 5653 5660 5662 5665 5670 5672 5676 5679 5681 5684 5688 5689 5690 5692
5499 5509 5517 5526 5532 5541 5551 5558 5567 5574 5580 5585 5589 5592 5593 5596 5600 5604 5608 5610 5614 5617 5620 5623 5626 5631 5634 5639 5641 5641 5644 5649 5650 5653 5655 5660 5662 5664 5667 5672 5675 5676 5678
5485 5497 5507 5514 5520 5529 5537 5545 5553 5561 5568 5575 5581 5584 5587 5590 5592 5597 5600 5603 5606 5609 5613 5617 5620 5621 5624 5627 5629 5631 5634 5636 5638 5641 5642 5644 5648 5650 5651 5652 5656 5659 5660
5469 5486 5497 5504 5509 5518 5524 5532 5541 5549 5556 5563 5570 5575 5579 5583 5587 5589 5592 5596 5599 5603 5606 5609 5611 5614 5616 5618 5620 5620 5622 5624 5626 5627 5630 5632 5634 5636 5637 5640 5640 5641 5643
5455 5472 5484 5491 5501 5508 5516 5523 5529 5537 5543 5550 5557 5564 5570 5574 5577 5580 5583 5586 5589 5593 5596 5598 5602 5604 5606 5608 5611 5612 5614 5615 5617 5618 5619 5621 5624 5624 5626 5626 5628 5629 5630
5437 5453 5468 5477 5489 5497 5506 5515 5520 5528 5533 5541 5548 5555 5559 5563 5568 5571 5575 5577 5580 5583 5585 5588 5591 5594 5596 5598 5600 5603 5604 5605 5607 5607 5609 5610 5610 5612 5614 5614 5616 5616 5617
5416 5436 5451 5461 5474 5485 5495 5505 5510 5518 5525 5532 5538 5543 5548 5553 5557 5561 5564 5567 5570 5572 5574 5577 5580 5582 5585 5587 5589 5590 5592 5594 5595 5596 5597 5598 5598 5599 5601 5601 5603 5603 5605
5401 5414 5433 5446 5459 5470 5481 5495 5498 5506 5514 5521 5527 5532 5538 5542 5546 5549 5552 5554 5557 5560 5563 5565 5568 5571 5573 5575 5577 5578 5579 5580 5582 5583 5585 5585 5586 5585 5586 5588 5588 5589 5591
Wind_Speed
40 39 37 35 35 35 38 41 46 53 57 48 41 40 47 66 71 86 76 66 77 73 73 72 66 59 55 51 48 46 42 39 37 35 34 32 30 26 21 22 20 18 17
37 36 35 35 33 33 34 39 41 42 40 44 42 40 47 60 71 82 88 71 66 66 72 71 66 59 56 53 49 47 43 40 39 36 37 34 31 29 25 23 23 21 20
37 36 35 33 28 28 30 34 33 35 30 40 37 39 44 54 67 80 96 66 64 74 77 73 65 61 56 53 49 47 43 42 40 39 37 35 33 33 29 26 25 24 23
37 35 32 29 25 24 26 27 27 29 31 27 30 34 32 37 55 79 71 66 57 71 70 68 65 61 56 54 49 47 46 44 42 41 39 38 38 35 33 30 28 27 26
34 32 30 28 24 22 21 23 23 25 27 21 25 26 26 25 39 60 75 54 60 68 62 62 64 59 54 53 50 49 47 46 44 43 41 40 39 38 37 34 31 29 28
32 30 28 24 22 21 18 18 19 18 19 20 18 24 20 26 54 70 62 50 67 63 60 61 62 58 55 52 50 49 48 47 45 44 43 41 42 41 39 36 34 31 31
32 30 30 26 22 19 15 14 16 19 18 19 12 18 31 46 57 60 58 67 68 62 58 59 57 54 52 51 51 48 48 47 46 45 44 41 44 44 41 41 39 35 33
39 36 32 29 23 20 15 13 14 19 16 16 13 19 27 45 51 54 59 57 62 55 56 57 55 54 52 50 50 47 47 47 47 46 45 43 47 45 45 43 42 40 38
41 37 37 34 29 24 18 15 12 19 18 13 14 24 23 39 54 53 61 64 56 57 58 58 55 53 52 51 50 49 49 49 49 48 48 46 50 48 46 45 45 44 42
44 40 39 37 32 27 23 18 16 16 22 13 16 25 31 44 47 51 55 53 60 61 62 60 57 57 56 53 52 52 52 51 50 50 49 46 51 49 48 48 47 47 45
41 41 41 37 34 31 27 21 19 17 20 26 25 22 19 33 42 52 46 57 59 62 62 60 59 57 55 54 51 50 50 51 51 50 48 52 51 53 55 52 51 50 49
44 41 39 38 38 36 34 29 24 23 22 27 35 30 32 31 39 36 49 61 69 68 65 63 62 60 58 58 58 56 55 53 51 52 56 57 58 57 59 57 56 53 53
42 42 37 35 38 39 39 38 32 28 26 26 32 40 28 37 36 27 43 47 55 55 66 66 63 60 60 58 58 62 66 66 61 60 62 58 57 58 59 61 61 59 57
45 45 40 37 41 40 41 41 39 34 30 32 32 37 36 30 42 42 46 47 38 42 45 50 59 61 62 66 66 66 63 64 65 65 68 68 67 66 65 65 63 60 59
41 41 43 39 37 35 40 43 42 39 36 34 34 35 35 39 37 52 43 47 49 44 47 44 54 56 54 50 51 56 60 59 59 62 66 66 65 67 68 67 65 64 62
42 43 41 39 34 35 40 42 44 44 42 39 37 37 36 36 41 45 52 43 51 55 46 53 53 54 62 54 49 48 51 54 56 58 64 61 67 69 70 67 63 62 60
37 38 39 42 39 34 35 39 42 46 46 44 41 40 40 39 37 40 48 43 47 61 55 66 54 56 50 57 55 63 57 59 60 62 60 64 68 62 65 67 66 68 65
54 43 39 41 43 36 34 36 39 43 46 46 44 42 42 40 38 38 40 40 41 40 41 44 52 53 54 50 52 56 59 67 61 58 60 65 67 68 62 59 61 61 66
59 58 54 48 48 40 36 38 38 38 39 46 46 44 43 43 39 39 37 37 36 37 41 43 44 47 57 65 57 61 65 58 63 67 70 71 73 71 70 64 69 68 70
64 56 53 59 63 50 48 44 39 39 38 38 43 47 45 42 41 40 40 39 40 40 40 39 42 42 42 47 53 58 66 67 62 64 62 72 74 76 73 76 72 71 70
66 52 48 51 55 53 49 43 46 50 38 39 44 46 47 45 43 40 39 39 40 41 41 42 43 43 44 45 43 43 43 44 46 47 52 62 67 66 66 71 68 64 68
67 61 55 63 55 48 40 38 38 40 42 44 46 46 46 46 46 44 42 43 42 42 43 43 44 44 44 44 43 42 41 42 42 39 39 43 47 52 54 48 57 61 60
71 65 64 54 53 54 46 38 39 41 43 46 44 43 43 47 49 47 47 43 43 43 44 44 43 43 42 42 41 41 40 41 41 41 41 40 41 41 41 36 41 46 51
83 72 72 70 53 48 40 40 44 41 41 43 37 36 40 40 41 44 46 47 45 45 46 46 44 43 42 43 43 43 43 42 42 42 41 42 43 44 43 44 42 39 45
78 84 77 78 67 59 45 51 40 41 37 34 32 32 32 39 47 45 46 47 47 47 48 46 45 45 46 46 46 46 46 46 46 45 44 42 42 42 42 44 49 48 44
39 78 88 89 78 64 60 41 30 45 49 46 41 37 37 35 40 48 52 50 49 49 50 49 48 47 47 48 47 48 48 48 48 47 47 48 47 46 44 40 37 41 40
Wind_Direction
252 250 254 260 265 270 273 277 281 282 291 282 267 260 254 241 228 221 214 216 220 219 218 218 217 211 211 211 216 216 218 221 224 224 228 230 235 245 251 253 254 255 243
246 247 251 255 260 268 274 279 284 293 281 283 270 269 251 242 228 215 212 209 205 214 213 217 213 210 212 211 214 217 218 221 224 224 227 229 233 243 250 253 254 256 247
242 244 246 251 260 268 275 280 286 287 267 283 260 271 255 248 226 213 206 194 199 214 208 213 208 210 211 210 212 216 218 221 222 224 227 230 233 240 247 252 252 252 253
238 238 242 249 257 267 273 277 283 283 265 290 283 262 256 243 212 209 222 207 198 203 204 209 208 208 210 211 211 216 218 221 224 226 228 230 232 238 245 252 251 251 253
235 234 238 243 252 260 264 270 273 277 269 295 284 266 234 211 202 205 194 187 200 198 202 208 208 208 209 212 212 216 220 221 223 225 229 232 235 238 244 250 253 253 255
236 233 235 237 245 253 259 267 266 270 277 271 289 261 214 198 191 186 187 187 202 197 202 209 208 208 210 213 215 217 221 224 224 226 230 233 238 240 244 250 252 253 256
235 236 236 235 238 247 251 258 253 249 265 259 276 233 215 194 195 198 186 196 197 199 202 209 208 209 211 214 218 219 221 225 228 229 232 233 242 243 245 249 253 253 256
236 232 231 234 232 243 247 250 247 246 263 234 251 208 218 202 193 186 183 189 195 199 205 209 208 210 212 216 219 221 225 227 230 231 233 234 244 246 246 249 252 254 257
234 236 235 232 221 222 230 231 236 236 238 247 230 205 200 185 199 195 195 197 197 202 207 210 210 211 214 216 219 222 226 229 231 234 234 232 242 248 249 250 252 254 256
237 238 238 236 225 214 225 219 216 222 219 222 198 204 193 195 201 203 200 189 200 206 210 212 212 213 215 217 220 224 227 230 233 236 237 238 244 248 253 253 254 256 257
232 236 235 234 223 212 212 220 216 219 213 204 202 212 206 207 199 208 222 208 211 211 213 215 215 216 217 220 222 225 230 235 237 239 240 245 246 251 254 256 256 257 258
231 235 236 234 232 213 206 212 212 207 213 208 202 204 211 207 197 205 216 215 212 216 213 218 219 218 221 224 227 228 230 236 239 241 244 245 247 248 251 254 259 257 258
227 226 230 231 231 221 208 206 207 207 208 210 207 210 228 212 218 211 225 210 218 214 219 219 220 221 223 223 223 227 232 231 234 238 241 244 247 249 250 255 258 258 259
233 233 233 227 227 227 214 211 208 205 208 209 209 205 208 222 212 214 217 216 217 223 228 233 231 234 236 233 237 239 237 235 236 239 242 245 245 246 250 254 256 259 261
238 235 235 235 230 232 225 218 215 215 211 211 210 213 218 218 218 227 214 212 220 229 224 224 230 232 233 235 237 240 239 242 243 244 246 248 249 251 255 255 257 258 260
242 241 239 236 230 229 229 225 220 215 218 216 215 214 216 222 228 225 228 210 215 230 229 222 224 225 231 233 237 239 239 244 246 251 252 252 254 253 254 256 258 261 262
231 242 243 241 234 225 230 228 226 222 217 217 216 219 219 219 217 221 226 237 235 226 238 231 234 224 224 226 238 240 240 234 253 255 251 249 252 253 258 257 258 259 260
235 231 228 240 242 239 229 227 226 227 226 222 221 221 223 224 226 222 223 228 230 238 243 241 238 238 239 242 242 243 241 239 244 244 245 250 255 254 256 261 256 261 262
237 227 224 225 235 224 229 223 225 227 233 236 229 224 224 226 228 231 233 234 236 235 235 240 246 248 253 251 252 251 251 244 242 250 244 245 253 255 259 256 253 259 266
233 235 237 234 241 239 222 222 224 220 224 231 239 236 228 228 231 233 233 235 237 238 242 245 247 250 251 251 251 254 253 251 250 248 251 248 248 252 258 256 258 260 263
230 227 227 225 217 219 232 236 229 226 229 227 228 236 239 234 232 233 235 236 238 239 242 245 246 248 250 254 255 254 254 257 259 263 265 262 261 262 263 265 265 266 257
227 214 218 211 219 234 223 209 225 224 224 225 226 227 233 239 241 240 238 237 239 243 243 244 246 249 252 256 260 263 265 264 266 265 263 260 257 261 265 266 271 273 272
225 218 206 202 205 216 215 232 217 214 219 222 226 228 228 229 237 245 246 244 243 244 247 246 247 249 251 254 256 258 260 263 267 266 263 260 262 264 257 257 266 264 267
221 215 211 209 197 209 211 209 213 214 213 219 225 234 233 232 234 240 244 247 247 247 248 249 251 254 256 257 257 260 263 266 268 267 267 265 264 265 265 267 261 264 264
220 213 211 211 201 197 203 208 211 212 217 219 214 224 236 246 243 240 242 245 249 251 252 253 253 254 256 259 261 263 263 263 265 268 268 267 268 265 262 259 260 267 260
225 218 208 220 225 220 223 221 221 236 239 244 240 240 254 263 254 247 242 240 243 248 251 254 254 253 254 255 258 260 261 263 264 265 266 267 267 268 269 266 261 255 250